sat.trackr.live / text

‹ back to catalog

YAOGAN-30 11C

NORAD 49029 · 2021-065D

PAYLOAD ACTIVE UNKNOWN

§ Identity

Operator
Country
PRC
Launch date
2021-07-19
Launch site
XICLF
Launch vehicle
Mass (kg)
RCS (m²)

External: N2YO · Heavens-Above · Gunter

§ Orbital elements

Epoch: 2026-09-20T20:56:00.284928Z

Period
95.81 min
Inclination
34.9947°
Eccentricity
0.0003710
Mean motion
15.03052380 rev/d
Perigee alt
554.9 km
Apogee alt
560.1 km
Semi-major
6,935.6 km
B*
1.1672e-4
RAAN
49.2696°
Arg perigee
13.7640°
Mean anomaly
346.3169°
Rev number
28,306

§ Raw data

YAOGAN-30 11C1 49029U 21065D   26263.87222552  .00001575  00000+0  11672-3 0  99972 49029  34.9947  49.2696 0003710  13.7640 346.3169 15.03052380283068

JSON: /api/v1/satellites/49029 · /tle

For live sub-satellite position, see the globe view (requires WebGL).

§ Visibility from observer

Set your observer location to see the next 7 days of passes ≥ 10°. The values pass through the URL so the page stays shareable.

No JS? Fill the form by hand. The geolocation button needs JavaScript.